Location: *
(43.4667°N, 11.6833°E)
Time: 00:04:34
(UTC+00:00)

Cosmos 1190 Rocket - Pass Details

Date: 19 July 2019
Orbit: 756 x 781 km, 74.1° (Epoch: 23 August)

Event Time Altitude Azimuth Distance (km) Brightness Sun altitude
Exits shadow 20:56:31 10° 204° (SSW) 2,286 6.2 -17.8°
Reaches altitude 10° 20:56:32 10° 204° (SSW) 2,278 6.2 -17.9°
Maximum altitude 21:01:42 78° 290° (WNW) 780 4.1 -18.4°
Drops below altitude 10° 21:06:56 10° 18° (NNE) 2,304 7.0 -18.9°
Sets 21:09:20 0° 20° (NNE) 3,238 7.8 -19.1°
